Location: *
(51.8167°N, 12.5000°E)
Time: 17:33:29
(UTC+00:00)

Meteor 1-24 Rocket - Pass Details

Date: 16 September 2019
Orbit: 791 x 926 km, 81.2° (Epoch: 19 October)

Event Time Altitude Azimuth Distance (km) Brightness Sun altitude
Rises 19:47:31 0° 346° (NNW) 3,422 7.6 -21.6°
Reaches altitude 10° 19:49:55 10° 347° (NNW) 2,502 6.8 -21.9°
Maximum altitude 19:55:38 89° 253° (WSW) 888 3.7 -22.6°
Enters shadow 19:57:49 41° 169° (S) 1,271 4.2 -22.9°
